Location: Cisewo
(53.3833°N, 14.9000°E)
Time: 10:19:47
(UTC+00:00)

Cosmos 2058 - Pass Details

Date: 18 April 2021
Orbit: 561 x 583 km, 82.5° (Epoch: 14 May)

Event Time Altitude Azimuth Distance (km) Brightness Sun altitude
Rises 18:45:05 0° 350° (N) 2,819 7.0 -6.0°
Reaches altitude 10° 18:47:19 10° 354° (N) 1,912 6.1 -6.3°
Maximum altitude 18:51:30 62° 76° (ENE) 659 3.0 -6.9°
Drops below altitude 10° 18:55:38 10° 157° (SSE) 1,884 5.1 -7.4°
Enters shadow 18:57:08 - 160° (SSE) 2,494 5.7 -7.6°
